Location: Moena
(46.3667°N, 11.6500°E)
Time: 04:23:13
(UTC+00:00)

Cosmos 2333 Rocket - Pass Details

Date: 25 June 2021
Orbit: 841 x 861 km, 70.8° (Epoch: 27 July)

Event Time Altitude Azimuth Distance (km) Brightness Sun altitude
Rises 20:59:44 0° 239° (WSW) 3,424 5.4 -13.7°
Reaches altitude 10° 21:02:30 10° 250° (WSW) 2,488 4.8 -14.0°
Maximum altitude 21:07:28 30° 310° (NW) 1,497 4.3 -14.4°
Drops below altitude 10° 21:12:27 10° 11° (N) 2,489 5.4 -14.9°
Sets 21:15:14 0° 22° (NNE) 3,424 6.0 -15.1°
